Location: Little Elm
(33.1626°N, 96.9375°W)
Time: 20:04:12
(UTC+00:00)

Envisat - Pass Details

Date: 19 May 2022
Orbit: 764 x 765 km, 98.2° (Epoch: 25 June)

Event Time Altitude Azimuth Distance (km) Brightness Sun altitude
Rises 10:52:37 0° 14° (NNE) 3,234 7.0 -7.0°
Reaches altitude 10° 10:54:56 10° 16° (NNE) 2,304 6.2 -6.5°
Maximum altitude 11:00:01 74° 101° (ESE) 796 3.3 -5.6°
Drops below altitude 10° 11:05:03 10° 187° (S) 2,289 5.1 -4.7°
Sets 11:07:21 0° 189° (S) 3,211 5.9 -4.2°
